This is the latest recevied weather packets stored in our database for station/object IN3MWE-10. If no packets are shown the sender has not sent any weather packets the latest 10 day(s).
| Time | Temp. | Humidity | Pressure | Rain* | Wind** | Luminosity | Snow |
|---|---|---|---|---|---|---|---|
| 1777796417 | 23.33° C | 29% | 983.2 hPa | - | - | - | - |
| 1777795517 | 22.78° C | 31% | 983.4 hPa | - | - | - | - |
| 1777794617 | 17.22° C | 43% | 983.9 hPa | - | - | - | - |
| 1777793717 | 16.67° C | 43% | 984 hPa | - | - | - | - |
| 1777792817 | 16.11° C | 48% | 984.2 hPa | - | - | - | - |
| 1777791917 | 15.56° C | 50% | 984.5 hPa | - | - | - | - |
| 1777791016 | 14.44° C | 51% | 984.5 hPa | - | - | - | - |
| 1777790116 | 13.33° C | 57% | 984.7 hPa | - | - | - | - |
| 1777789216 | 12.78° C | 60% | 984.9 hPa | - | - | - | - |
| 1777788316 | 12.22° C | 60% | 984.8 hPa | - | - | - | - |
| 1777787416 | 12.78° C | 59% | 984.7 hPa | - | - | - | - |
| 1777786516 | 12.78° C | 56% | 984.7 hPa | - | - | - | - |
| 1777785616 | 12.78° C | 56% | 984.7 hPa | - | - | - | - |
| 1777784715 | 12.22° C | 55% | 984.7 hPa | - | - | - | - |
| 1777783815 | 12.22° C | 56% | 984.9 hPa | - | - | - | - |
| 1777782915 | 12.22° C | 55% | 984.9 hPa | - | - | - | - |
| 1777782015 | 12.22° C | 56% | 984.8 hPa | - | - | - | - |
| 1777781115 | 11.67° C | 57% | 984.8 hPa | - | - | - | - |
| 1777780215 | 12.22° C | 55% | 984.9 hPa | - | - | - | - |
| 1777779315 | 11.67° C | 57% | 984.8 hPa | - | - | - | - |
| 1777778415 | 12.22° C | 55% | 984.7 hPa | - | - | - | - |
| 1777777514 | 11.67° C | 56% | 984.7 hPa | - | - | - | - |
| 1777776626 | 12.22° C | 54% | 984.6 hPa | - | - | - | - |
| 1777775726 | 12.78° C | 53% | 984.7 hPa | - | - | - | - |
| 1777774825 | 12.78° C | 52% | 984.7 hPa | - | - | - | - |
* Rain since midnight (hover to see other rain measurements)
** Current wind speed in m/s (hover to see current wind gust speed)